Dewpoint
40 41 43 46 49 51 58 58 59 58 58 57 56 55 54 53 53 53 52 52 51 50
43 41 44 48 50 50 59 57 57 58 57 56 56 55 54 53 53 53 52 52 51 51
43 44 45 48 49 51 52 57 56 57 56 56 55 55 54 53 53 52 52 52 51 51
43 44 45 47 49 50 50 58 56 56 55 55 54 54 54 53 53 52 52 52 51 51
44 46 46 46 49 50 55 57 56 56 55 55 54 54 54 53 53 52 52 52 52 51
45 46 48 49 50 51 57 56 56 55 55 54 54 54 54 54 53 52 52 52 51 51
46 48 49 50 53 55 58 56 56 55 55 55 54 54 54 53 53 53 52 52 52 52
47 51 51 51 53 57 56 55 55 55 55 55 54 54 54 54 53 53 52 52 52 52
51 52 50 54 57 56 56 55 55 54 54 54 54 54 53 54 53 53 53 52 53 53
50 51 52 57 56 56 55 55 54 54 53 53 53 53 53 53 53 53 53 53 53 53
51 51 57 57 56 56 56 55 54 54 53 53 53 52 52 52 53 53 53 53 53 53
41 53 57 56 56 57 56 56 55 55 54 53 53 52 51 51 53 53 53 53 53 52
38 47 56 56 56 57 57 56 56 56 55 55 55 52 51 51 52 52 52 52 52 52
36 38 41 54 56 56 56 56 56 55 56 55 55 53 52 51 53 52 50 50 49 50
Wind_Speed
32 28 28 35 27 24 35 37 36 36 32 31 31 27 26 23 23 22 22 22 19 18
30 32 30 29 30 37 31 33 38 39 36 33 31 29 28 25 25 23 23 20 20 19
30 33 37 28 28 26 27 35 38 41 38 34 29 29 29 24 23 24 21 19 20 18
31 32 37 38 31 33 33 41 40 40 37 35 32 30 29 25 24 26 22 20 22 21
34 31 32 31 27 34 38 40 38 38 36 35 33 30 29 27 25 27 24 24 22 21
34 34 36 36 33 38 41 37 37 38 37 34 32 30 28 28 25 26 25 24 24 21
33 35 34 36 26 41 39 37 35 34 35 34 32 30 28 26 25 24 23 23 23 22
35 24 22 32 29 35 33 34 35 34 31 30 30 27 28 28 27 25 22 21 21 22
26 16 7 32 44 36 32 33 33 33 34 31 26 31 34 29 26 25 25 24 23 22
25 19 18 20 29 30 29 29 30 30 31 30 29 33 35 34 26 25 24 24 23 21
15 24 24 34 33 31 31 31 29 28 28 27 26 34 38 37 26 24 25 25 24 24
20 37 32 28 27 28 27 28 28 27 27 27 24 33 38 36 27 23 24 23 23 23
20 8 35 34 34 27 27 29 25 24 25 27 25 33 37 36 26 24 20 20 21 28
28 22 26 10 25 26 25 23 25 26 23 24 25 26 37 39 25 24 22 22 21 20
Wind_Direction
200 196 206 212 228 260 192 187 176 179 183 183 182 181 182 187 189 190 192 188 190 196
199 199 206 206 214 229 217 185 177 178 181 185 178 179 180 184 190 188 192 190 190 195
203 202 204 202 202 228 260 186 180 178 182 178 177 176 180 184 184 184 191 190 192 196
208 212 204 210 208 228 250 196 184 178 177 173 173 177 181 183 179 187 188 191 192 198
207 206 209 217 223 233 240 180 176 178 176 172 173 175 180 182 182 186 188 193 190 195
208 206 201 199 216 231 228 176 177 175 176 172 172 176 184 188 184 189 192 191 192 192
207 206 203 191 232 236 186 172 176 175 174 171 173 177 183 185 184 189 190 189 193 192
208 197 193 202 245 169 173 173 174 173 173 172 172 175 181 184 185 186 185 188 193 199
188 184 218 242 189 162 170 175 175 177 171 171 174 179 183 184 188 188 185 191 199 201
171 180 218 183 155 163 167 168 173 179 171 172 176 179 185 186 189 187 192 196 197 199
209 178 196 163 172 169 170 172 172 176 169 171 179 179 186 188 189 191 194 197 196 197
343 196 188 169 165 174 174 175 179 175 171 175 179 183 187 187 192 191 194 195 194 195
350 21 179 183 183 173 180 180 177 175 179 182 183 185 186 187 192 193 190 191 196 193
12 17 28 188 175 178 170 166 173 177 178 181 187 185 187 190 191 194 190 194 192 194